sat.trackr.live / text

‹ back to catalog

STARLINK-34628

NORAD 64864 · 2025-152Y

PAYLOAD ACTIVE UNKNOWN

§ Identity

Operator
Country
US
Launch date
2025-07-19
Launch site
AFWTR
Launch vehicle
Mass (kg)
RCS (m²)

Purposes: comms

External: N2YO · Heavens-Above · Gunter

§ Orbital elements

Epoch: 2026-09-20T13:56:44.651040Z

Period
93.91 min
Inclination
97.2833°
Eccentricity
0.0002051
Mean motion
15.33450408 rev/d
Perigee alt
464.1 km
Apogee alt
466.9 km
Semi-major
6,843.7 km
B*
4.2141e-4
RAAN
114.1005°
Arg perigee
85.8392°
Mean anomaly
274.3085°
Rev number
6,483

§ Raw data

STARLINK-346281 64864U 25152Y   26263.58107235  .00013557  00000+0  42141-3 0  99982 64864  97.2833 114.1005 0002051  85.8392 274.3085 15.33450408 64830

JSON: /api/v1/satellites/64864 · /tle

For live sub-satellite position, see the globe view (requires WebGL).

§ Visibility from observer

Set your observer location to see the next 7 days of passes ≥ 10°. The values pass through the URL so the page stays shareable.

No JS? Fill the form by hand. The geolocation button needs JavaScript.